Regional Weather Roundup
Issued by NWS

Home | Current Version | Previous Version | Graphics & Text | Print | Product List | Glossary On
Versions: 1 2 3 4 5 6 7 8 9 10 11 12 13 14 15 16 17 18 19 20 21 22 23 24 25 26 27 28 29 30 31 32 33 34 35 36 37 38 39 40 41 42 43 44 45
000
ASUS45 KBOU 252107
RWRCO

WEATHER ROUNDUP FOR COLORADO
NATIONAL WEATHER SERVICE DENVER/BOULDER CO
200 PM MST THU DEC 25 2014

NOTE: "FAIR" INDICATES FEW OR NO CLOUDS BELOW 12000 FEET WITH NO
SIGNIFICANT WEATHER AND/OR OBSTRUCTIONS TO VISIBILITY.

COZ001>005-013-030-031-252200-
...NORTHWEST COLORADO...

CITY           SKY/WX    TMP DP  RH WIND       PRES   REMARKS
CRAIG          LGT SNOW  33  29  85 E5        29.48S FOG     WCI  29
HAYDEN         CLOUDY    28  27  93 CALM      29.48R VSB 1/4
MEEKER         CLOUDY    36  24  62 SW12      29.48R
MOUNT WERNER   NOT AVBL
STEAMBOAT SPGS CLOUDY    29  26  88 CALM      29.47R
WALDEN         CLOUDY    30  23  74 NW7       29.45S WCI  23
$$

COZ006>008-011-252200-
...WEST CENTRAL VALLEYS...

CITY           SKY/WX    TMP DP  RH WIND       PRES   REMARKS
GRAND JUNCTION CLOUDY    34  31  88 W8        29.50S WCI  27
MONTROSE       PTSUNNY   41  22  46 W10G18    29.52S
EAGLE          PTSUNNY   37  25  60 NW7       29.49F
RIFLE          LGT SNOW  30  27  88 CALM      29.51S FOG
DELTA          PTSUNNY   43  24  47 SW13G26   29.53S
NUCLA          PTSUNNY   36  27  69 S23       29.57R
$$

COZ017>023-064>068-252200-
...SOUTHWEST COLORADO...

CITY           SKY/WX    TMP DP  RH WIND       PRES   REMARKS
DURANGO        CLOUDY    31  27  85 CALM      29.59F
CORTEZ         CLOUDY    37  21  52 SW18      29.57S
PAGOSA SPRINGS FLURRIES  31  22  71 W13       29.59F WCI  21
TELLURIDE      LGT SNOW  27  16  65 S7        29.52F WCI  19
WOLF CREEK PAS HVY SNOW  10  10 100 MISG      29.52R VSB 1/4
$$

COZ009-010-012-014-032>034-037-058>063-252200-
...CENTRAL COLORADO...

CITY           SKY/WX    TMP DP  RH WIND       PRES   REMARKS
ASPEN          CLOUDY    29  25  85 NW6       29.47R WCI  23
BUENA VISTA    PTSUNNY   36  16  44 SE15G25   29.47F
COPPER MTN     PTSUNNY   25  10  54 SE15      29.46S WCI  12
BERTHOUD PASS  LGT SNOW  12   7  79 MISG      29.49S VSB 3/4
COTTONWOOD PAS PTSUNNY   32  14  47 N3        29.48S
GUNNISON       PTSUNNY   16   7  67 N5        29.56F WCI   9
KREMMLING      CLOUDY    30  21  69 CALM      29.49R
LEADVILLE      LGT SNOW  21  14  74 S8        29.46R WCI  11
MONARCH PASS   CLOUDY    18  12  79 MISG      29.58S HAZE
SALIDA         PTSUNNY   38  15  38 S13G21    29.56S
SUNLIGHT       LGT SNOW  23  21  93 MISG      29.49S
WILKERSON PASS SUNNY     27  12  54 SW7       29.51F WCI  19
$$

COZ069>075-252200-
...SAN LUIS VALLEY/SANGRE DE CRISTO MOUNTAINS...

CITY           SKY/WX    TMP DP  RH WIND       PRES   REMARKS
ALAMOSA        SUNNY     38  18  44 SW18      29.55F
LA VETA PASS   NOT AVBL
SAGUACHE       SUNNY     27  14  59 CALM      29.55F
$$

COZ035-036-038>040-252200-
...NORTHERN COLORADO FRONT RANGE...

CITY           SKY/WX    TMP DP  RH WIND       PRES   REMARKS
DENVER INTL AP CLOUDY    37  30  75 N13       29.52R
DMNS CITY PARK   N/A     37  29  73 N12       29.52R
AURORA         CLOUDY    37  30  77 N12       29.53R
FRONT RANGE AP NOT AVBL
ERIE MUNI ARPT   N/A     36  33  88 N10       29.54R
BOULDER MUN AP LGT SNOW  32  32 100 N8        29.53R WCI  25
CENTENNIAL     PTSUNNY   37  27  67 NE14      29.50R
BROOMFIELD     CLOUDY    37  32  81 N10         N/A
FORT COLLINS   CLOUDY    32  28  86 N9        29.55R WCI  24
LONGMONT       LGT SNOW  35  33  93 NE8       29.56R VSB 3/4 WCI  28
$$

COZ041-046-047-076>085-087-088-252200-
...PIKES PEAK/PALMER DIVIDE AND SOUTHERN FOOTHILLS...

CITY           SKY/WX    TMP DP  RH WIND       PRES   REMARKS
COLO. SPRINGS  MOSUNNY   49  19  30 N15       29.45R
A. F. ACADEMY  MOSUNNY   41  19  41 N22       29.47R
ELLICOTT       NOT AVBL
FALCON         MOSUNNY   40  20  45 N17G26    29.47R
FORT CARSON    SUNNY     51  12  20 W8        29.44R
LIMON          SUNNY     40  26  57 N20       29.46R
MONUMENT HILL  MOSUNNY   34  25  69 N12       29.49R WCI  25
TRINIDAD       SUNNY     46  22  38 W15       29.49S
$$

COZ042>045-048>051-090-091-252200-
...NORTHEAST COLORADO...

CITY           SKY/WX    TMP DP  RH WIND       PRES   REMARKS
GREELEY ARPT   CLOUDY    34  28  80 N8        29.53R WCI  27
AKRON          CLOUDY    35  29  78 N18G26    29.50R WCI  24
BURLINGTON     SUNNY     41  25  53 N17       29.46R
WRAY           SUNNY     44  30  59 N16       29.50R
STERLING       CLOUDY    36  32  87 NE16      29.54R
HOLYOKE        SUNNY     41  30  65 N20G25    29.53R
FORT MORGAN    CLOUDY    34  29  83 NE16      29.53R WCI  24
$$

COZ086-089-092>099-252200-
...SOUTHEAST COLORADO...

CITY           SKY/WX    TMP DP  RH WIND       PRES   REMARKS
PUEBLO         SUNNY     55  13  18 W29G36    29.42R
LA JUNTA       SUNNY     58  20  22 SW23G31   29.44S
LAMAR          SUNNY     62  25  24 W14G23    29.43S
SPRINGFIELD      N/A     61  18  18 SW22G29   29.48R
$$



USA.gov is the U.S. government's official web portal to all federal, state and local government web resources and services.